Theta_e
290 292 291 289 288 287 284 286 284 287 288 292 294 295 296 297 297 296 296 292 293 290 288 286 285 283 281 280 277 275 274 273 273 272 271 271 270 270 270 269 269 269 268 268
285 289 288 286 288 289 289 288 288 287 286 293 295 296 295 295 295 294 295 296 292 288 286 284 283 281 279 278 275 274 273 273 271 270 270 269 269 268 267 267 267 267 267 268
281 287 286 282 285 287 288 290 290 285 290 295 293 294 294 295 295 293 294 295 295 288 285 283 282 280 278 275 274 272 272 271 269 269 268 267 266 266 266 266 266 266 267 267
281 284 275 287 293 291 289 290 292 291 293 294 294 295 296 297 296 295 295 295 292 288 287 284 282 279 277 273 272 271 271 268 268 267 266 266 265 265 265 266 266 266 266 266
280 280 284 285 289 287 286 286 292 291 292 293 294 293 294 296 297 296 297 298 296 290 287 283 280 277 273 272 271 270 268 268 267 266 264 264 262 264 264 265 265 264 266 265
282 277 276 287 291 293 290 281 293 292 291 291 291 286 292 297 296 295 295 291 284 283 281 279 276 273 271 271 270 269 269 267 266 265 262 261 263 262 264 263 264 265 265 265
281 280 283 291 290 290 279 284 294 294 293 292 290 292 296 291 291 286 284 281 281 279 276 275 273 273 272 270 269 269 267 266 264 263 261 261 261 262 262 262 263 263 264 266
282 279 277 294 293 285 292 296 295 295 294 292 293 294 293 291 283 281 278 277 276 275 274 272 273 273 270 269 268 266 265 264 262 260 262 262 259 261 261 262 263 263 265 267
287 286 294 296 294 296 297 296 297 296 296 294 293 292 292 289 281 279 278 276 275 274 271 271 272 273 270 266 265 264 263 261 260 260 261 260 260 261 264 263 264 264 266 266
289 292 293 294 297 297 298 295 296 297 296 294 293 293 291 288 282 278 276 274 274 271 270 269 271 271 267 265 264 261 261 261 261 261 261 261 263 264 263 264 264 265 266 266
284 287 291 295 296 297 296 295 293 294 293 294 293 290 291 289 284 280 276 274 273 271 270 268 269 265 264 263 261 261 262 262 262 262 262 262 262 262 264 265 266 266 266 267
283 291 290 292 295 295 294 295 296 294 294 294 292 291 292 288 287 280 276 273 272 271 268 266 265 264 262 261 262 262 262 261 261 261 261 261 261 262 262 264 266 267 268 269
285 289 288 288 289 291 291 293 295 295 294 293 294 292 291 291 286 279 276 272 272 270 267 265 263 261 260 261 263 263 262 261 260 260 260 260 260 261 261 262 263 264 265 267
286 285 282 284 284 288 289 289 289 289 291 294 293 293 291 289 279 276 273 272 272 268 265 264 262 260 260 260 262 261 261 260 260 260 259 258 258 258 257 257 257 259 262 265
281 278 281 285 285 286 287 287 286 286 288 290 292 292 290 284 278 276 275 272 269 266 264 262 261 258 258 259 259 259 259 258 258 257 257 257 257 256 257 256 257 257 258 261
269 271 274 276 275 278 280 283 283 285 288 290 290 291 290 287 281 277 272 270 266 264 263 262 260 257 257 258 258 258 258 257 257 257 255 256 256 256 256 256 256 256 257 257
263 264 265 265 268 270 272 276 279 283 286 287 287 288 282 277 273 270 268 267 268 265 263 261 258 257 258 258 258 258 257 255 256 256 256 256 255 255 255 255 255 255 255 254
264 263 263 264 264 266 268 270 273 276 279 286 289 289 281 274 271 268 266 267 264 262 262 259 257 257 257 258 258 257 257 256 256 255 255 254 253 254 254 254 254 254 254 255
261 261 261 262 264 264 264 266 268 272 277 286 288 285 277 274 270 267 266 263 261 259 257 257 261 257 257 258 257 257 256 255 255 255 254 251 253 253 254 254 254 253 253 254
258 259 259 260 261 264 266 269 270 275 281 283 279 272 270 267 266 263 263 262 263 260 257 258 257 257 257 259 258 257 256 256 255 254 254 254 253 253 253 251 252 253 253 253
257 257 258 258 260 265 268 270 272 271 270 271 268 264 262 262 263 263 258 255 255 258 258 257 257 257 258 256 257 257 256 255 255 254 253 254 252 253 253 252 252 253 253 252
256 256 257 258 260 264 264 266 268 266 264 262 262 262 262 262 262 260 261 256 257 257 257 257 258 257 256 257 256 255 255 255 254 252 252 252 253 253 252 253 252 252 252 252
256 257 257 258 259 261 261 262 263 263 262 262 262 263 261 260 260 258 254 257 257 258 257 257 256 256 255 255 255 255 254 253 253 253 253 252 252 252 252 252 252 251 251 251
256 257 257 258 260 259 258 259 260 261 260 261 261 260 260 257 255 257 257 258 258 257 256 257 258 258 255 255 254 254 253 253 253 252 252 250 251 250 250 251 251 251 250 250
256 257 257 256 257 257 258 258 258 258 258 257 256 257 257 257 257 256 257 257 258 257 257 259 260 256 254 254 254 253 253 253 252 251 251 251 251 250 250 250 249 250 250 250
256 256 256 256 256 257 257 257 256 257 256 255 255 256 256 257 257 257 257 257 257 257 258 257 254 254 254 253 253 253 252 251 251 251 250 251 250 250 250 250 250 250 250 249
256 256 255 255 256 256 256 256 255 254 255 255 254 256 256 256 257 257 257 257 257 257 255 254 254 254 254 253 253 253 253 252 252 252 252 251 250 251 251 251 250 250 249 249
Wind_Speed
20 24 23 24 18 20 26 28 29 28 25 33 32 24 26 19 16 20 19 14 19 16 15 16 17 19 19 19 18 17 15 13 11 8 6 5 5 5 5 5 6 9 10 11
27 29 32 34 21 34 32 34 26 23 29 34 35 31 30 33 25 28 25 21 18 16 15 17 20 20 19 19 18 16 14 12 10 9 7 5 4 4 5 6 7 8 10 10
23 25 23 14 35 35 41 38 33 31 34 35 34 29 32 31 22 24 26 24 17 17 18 18 21 21 22 19 17 15 14 12 11 9 7 5 4 4 5 6 7 8 9 10
12 9 20 22 25 37 37 34 33 28 37 35 35 31 31 22 18 22 23 22 12 14 14 16 17 18 17 17 16 15 14 13 11 10 8 5 5 4 5 5 6 8 10 11
10 17 17 3 18 25 23 33 27 33 34 35 34 12 31 19 22 25 23 19 13 12 13 16 18 19 18 16 15 14 13 12 11 9 8 6 3 4 4 5 6 8 9 12
13 15 21 19 30 22 6 8 31 28 28 29 6 9 20 19 17 18 17 6 7 9 11 16 18 20 21 18 16 15 13 11 9 7 6 5 4 2 3 5 7 7 11 11
23 23 14 11 9 5 13 21 32 31 27 26 22 20 25 2 6 1 3 8 12 16 15 15 15 17 19 15 14 14 13 12 10 7 6 5 4 0 3 5 6 7 10 12
14 19 27 18 24 26 29 29 25 22 14 12 17 22 20 12 9 9 10 12 14 15 14 13 17 18 15 15 13 13 13 12 9 7 5 5 4 2 1 4 6 8 10 11
22 15 11 15 30 30 32 27 24 18 18 12 15 17 17 14 13 12 11 10 11 14 17 15 16 17 18 15 14 14 13 11 9 8 6 5 4 3 1 2 4 7 9 10
26 28 22 16 17 22 24 26 27 24 23 10 17 15 15 9 9 11 12 13 12 15 16 16 13 15 16 17 15 11 12 11 9 7 6 5 4 3 2 2 4 7 8 10
13 21 22 21 19 16 16 17 15 17 13 17 16 14 16 12 13 13 14 14 14 15 16 18 16 17 17 17 16 14 12 10 10 7 6 5 4 3 2 1 5 7 8 9
17 19 17 16 13 17 22 26 22 16 19 17 16 21 16 16 14 13 16 17 17 18 19 19 17 16 15 14 15 15 13 9 8 6 4 4 4 3 2 2 8 9 13 11
24 27 26 23 22 23 22 21 20 16 16 16 19 15 19 18 14 14 15 18 20 21 20 21 19 18 15 15 14 13 12 12 9 7 5 4 3 2 3 4 6 7 11 13
27 28 29 28 27 24 24 28 28 28 26 22 20 16 15 15 10 18 22 22 20 21 21 21 19 16 15 13 12 11 11 15 9 8 7 6 5 4 3 3 5 6 9 12
16 18 19 19 20 21 22 23 27 28 25 26 23 20 16 14 16 21 17 19 20 22 23 22 21 18 15 14 14 13 11 9 9 8 6 6 5 5 4 3 1 4 6 8
22 20 17 14 17 20 21 23 22 23 23 24 23 21 18 15 9 12 16 22 25 22 21 19 19 18 17 16 14 12 10 15 11 8 8 6 5 5 4 2 1 3 4 6
19 19 22 26 20 23 24 23 25 24 23 26 26 13 9 13 17 19 19 19 20 20 20 20 20 16 16 17 15 10 10 10 12 7 6 5 5 5 4 2 1 2 4 5
18 21 21 23 25 23 27 27 25 25 24 26 21 15 14 19 22 22 23 21 21 20 18 19 22 18 15 14 13 11 10 9 8 8 7 6 5 5 3 2 1 2 4 4
18 23 25 25 22 23 25 28 26 24 26 22 19 16 17 15 17 23 25 23 24 24 17 18 21 18 16 15 14 10 10 11 9 8 7 9 7 4 3 2 2 2 3 4
21 20 23 26 22 21 27 23 25 25 16 12 3 10 12 12 14 15 14 15 16 16 21 25 21 16 15 17 16 10 11 11 10 8 7 7 6 5 4 3 1 1 3 3
23 22 22 22 23 23 17 14 12 5 5 8 11 13 16 16 16 18 19 13 12 18 22 24 16 13 11 13 11 10 10 10 9 8 8 7 6 5 4 3 1 1 2 3
21 20 21 20 20 16 14 13 10 8 10 13 14 15 17 17 16 13 10 15 14 22 16 13 12 16 13 16 9 10 10 9 8 7 6 6 5 5 4 3 1 1 2 3
18 19 18 17 15 12 10 11 10 9 10 10 12 15 14 10 10 15 14 9 13 16 12 11 17 20 19 10 9 9 9 9 8 7 6 6 5 4 3 3 1 2 2 3
17 16 15 14 9 9 11 11 11 12 13 13 13 12 11 10 11 12 15 17 21 18 13 15 18 20 14 9 8 8 8 7 7 6 6 6 4 3 2 1 1 2 2 3
13 13 12 11 9 8 9 7 7 10 12 14 15 12 11 8 6 13 12 13 19 16 13 18 19 17 9 8 8 7 6 6 6 6 6 4 4 3 2 2 3 4 2 2
11 8 8 10 8 7 7 7 7 7 8 9 9 9 9 10 11 13 13 16 13 15 12 11 9 8 8 8 7 7 7 6 6 5 5 4 4 4 3 3 4 4 2 4
8 11 8 7 8 8 8 9 8 9 8 9 10 9 9 10 12 13 15 12 11 11 10 8 8 8 8 7 7 6 5 4 4 4 4 4 3 3 3 3 4 3 3 4
Wind_Direction
250 262 275 278 269 250 233 243 243 258 257 261 274 275 271 272 272 272 267 229 233 229 214 204 195 187 184 182 171 166 169 173 177 173 180 200 235 253 279 294 289 286 293 297
252 262 263 257 260 261 266 257 251 253 262 262 270 280 282 274 268 272 271 255 236 223 201 198 192 186 179 177 170 165 168 169 164 171 177 202 224 261 280 274 283 295 296 304
239 231 251 254 240 249 257 262 256 254 255 269 266 263 260 272 272 265 265 263 257 208 203 198 189 180 181 169 156 162 163 162 168 171 179 195 216 249 264 284 299 298 302 308
248 229 229 233 243 237 244 251 257 253 252 255 259 265 272 270 265 258 262 267 241 208 203 190 178 174 162 156 156 161 164 164 169 172 177 181 210 246 269 291 300 309 311 304
231 219 242 170 234 225 225 246 257 249 251 249 256 266 269 258 253 259 264 271 258 207 190 167 167 160 154 152 153 161 169 170 170 170 166 175 196 240 279 296 311 301 298 304
223 230 233 231 236 239 78 247 248 239 249 253 260 245 261 266 237 237 242 235 157 155 157 159 160 156 156 160 158 164 166 163 157 160 160 166 175 244 318 305 297 303 310 307
236 245 246 219 207 111 192 240 245 249 247 249 247 232 251 103 193 304 139 156 150 150 159 159 157 160 156 155 164 153 145 146 149 158 166 165 165 344 303 305 311 312 311 308
230 242 248 217 226 220 236 240 241 257 249 220 236 249 243 230 187 189 176 160 163 151 153 153 158 158 153 152 138 139 140 143 148 156 176 157 153 143 253 308 317 324 316 306
220 230 238 210 222 225 241 251 252 251 252 216 240 238 237 221 201 195 186 172 170 155 146 155 164 158 148 137 144 144 143 142 155 158 168 161 161 131 95 355 333 326 314 320
261 252 263 253 236 240 240 240 248 253 258 216 233 239 238 225 191 183 176 177 168 154 155 152 160 145 131 141 143 147 139 148 150 163 159 167 148 127 93 352 338 314 328 322
291 288 281 284 280 283 288 288 280 275 267 249 244 244 237 230 210 195 179 171 167 164 159 155 153 134 142 145 152 151 149 151 151 155 165 144 114 118 96 303 305 324 326 321
276 296 282 284 307 307 299 293 285 276 274 259 243 251 239 233 221 187 177 167 168 167 157 155 149 142 147 154 151 145 147 153 150 148 145 118 106 119 106 327 347 338 326 325
290 292 295 305 296 289 285 289 290 286 272 268 267 240 241 243 206 178 172 171 177 173 159 151 151 149 154 157 152 154 148 147 140 141 138 116 98 80 55 12 356 320 341 336
274 280 284 286 288 286 284 286 283 278 272 267 266 266 242 224 170 175 182 179 165 159 154 152 149 153 157 151 146 142 137 139 138 141 138 135 138 119 86 36 347 331 321 345
316 327 309 306 301 294 290 287 283 280 277 273 267 256 240 207 198 197 172 162 159 159 152 156 152 151 147 142 140 144 143 137 133 132 135 139 140 128 124 126 238 289 313 348
318 308 309 331 320 309 308 298 292 292 291 281 271 263 247 227 192 163 159 156 162 167 157 151 147 143 144 144 141 142 140 139 137 140 143 140 143 129 116 102 4 329 347 339
333 324 333 314 306 302 298 289 284 283 286 285 272 248 185 158 150 153 156 167 157 152 150 147 142 149 149 146 146 139 139 135 138 133 130 141 124 111 104 123 51 336 337 323
307 297 295 288 292 295 290 284 281 283 282 278 274 266 198 178 181 166 156 155 137 137 146 142 141 143 147 149 141 137 132 136 141 133 147 133 123 112 126 127 61 14 321 319
308 301 298 293 293 286 281 280 280 279 273 272 270 240 203 190 167 156 151 149 145 139 140 134 138 138 143 145 137 131 131 130 138 147 133 135 119 133 136 124 73 13 320 330
307 304 300 298 298 287 284 273 272 271 284 276 136 116 121 122 132 130 136 138 144 130 136 136 133 143 142 142 136 133 131 142 145 141 144 132 134 145 136 119 53 310 328 333
313 313 308 305 305 302 301 313 306 339 20 74 105 112 112 115 129 133 127 113 111 131 125 131 138 140 138 134 138 132 135 143 147 149 149 137 145 140 141 137 173 274 345 329
314 310 312 312 307 317 336 343 6 30 60 81 96 110 117 118 113 93 81 120 127 128 130 130 133 135 134 136 132 131 136 141 139 140 137 144 141 146 141 145 178 337 320 334
310 313 315 317 318 328 351 7 27 49 71 87 108 112 107 105 114 119 111 115 121 126 122 121 131 131 131 129 128 132 139 143 149 145 152 138 142 144 150 172 169 276 296 331
313 318 324 319 335 14 25 18 43 56 62 65 73 84 103 104 73 76 105 121 127 120 117 127 134 134 125 123 129 138 141 148 145 144 129 128 135 139 199 212 260 270 291 320
322 325 333 345 360 7 8 20 53 57 65 59 53 51 54 43 102 122 118 115 118 114 118 131 129 124 118 131 136 143 146 149 150 136 136 146 153 187 196 235 250 260 283 297
337 340 345 358 4 7 21 30 51 52 63 75 64 62 72 86 96 105 109 112 113 121 120 119 117 122 132 135 139 138 143 142 149 149 150 164 188 188 200 233 254 260 294 291
351 4 -0 10 17 23 33 36 51 56 55 70 82 72 80 87 98 104 107 111 110 104 101 111 122 129 130 134 136 141 146 149 160 157 172 186 196 221 228 246 268 285 293 281